weather.gov     
National Weather Service

Terminal Aerodrome Forecast
NWS Homepage
This page is being discontinued on March 12, 2014.
The same data is available at this site. Please update your bookmarks.
Thank you, and we apologize for the inconvenience.
Please send an email to SR-SRH.Webmaster@noaa.gov with any concerns.


Current Version
Previous Version:    01  02  03  04  05  06  07  08  09  10  11  12  13  14  15  16  17  18  19  20  21  22  23  24  25  26  27  28  29  30  
   31  32  33  34  35  
[Printable]
292
FTUS43 KIND 262300
TAFBMG
TAF
KBMG 262320Z 2700/2724 VRB03KT P6SM OVC020
      TEMPO 2701/2705 3SM -SN BR OVC012
     FM270500 VRB03KT P6SM OVC015
     FM271500 05005KT P6SM SCT025 BKN050
     FM272000 01005KT P6SM SCT050
      AMD LTD TO CLD VIS AND WIND 2702/2714=


U.S. Dept. of Commerce
NOAA National Weather Service
1325 East West Highway
Silver Spring, MD 20910
E-mail: w-nws.webmaster@noaa.gov
Page last modified: May 16, 2007
NATIONAL WEATHER SERVICE: for Safety, for Work, for Fun - FOR LIFE